STARLINK-2652

decayed
NORAD ID: 48451 Int'l Des: 2021-040 Owner: SPXS Country: US Constellation: starlink
LEOCIRCULAR
Group

About STARLINK-2652

Description loading...

Altitude History

Altitude vs Time

uPlot chart will show altitude changes over time

Two-Line Element Set

1 48451U 21040Z 24230.16417484 .23892230 12077-4 36555-2 0 9991
2 48451 53.0328 143.3383 0006489 202.8685 311.5056 16.33320550183100
Epoch: Aug 17, 2024 • Age: 9536 hours

Current Status

Position data unavailable
Launch Date May 9, 2021
Age 4.3 years
Decay Date Aug 17, 2024
Type internet

Technical Details

Classification Payload
Mass 260.00 kg
Dry Mass 248.00 kg
Total Mass 260.00 kg
Length 0.20 m
Diameter 2.80 m
Span 9.00 m
Shape Box + pan
Manufacturer SPXS
Bus Type Starlink
Phase Status Reentered
Owner/State SPXS/US

Large Constellations

Loading constellations...